|
NORAD ID: 17369 Int'l Code: 1987-011A
Perigee: -6,371.0 km
Apogee: -6,371.0 km
Inclination: 0.0 °
Period: 0.0 minutes
Semi major axis: 0 km
Launch date: February 1, 1987
Source: Commonwealth of Independent States (former USSR) (CIS)
Two Line Element Set (TLE):
1 17369U 87011A 13165.73308978 -.00000047 00000-0 19891-4 0 9459
2 17369 065.0106 230.5938 0022136 273.1822 223.8101 14.31263258429170
Source:
NASA's NSSDC Master Catalog entry for COSMOS 1818
|